📊 Raw Sensor Data

Showing records 39051 to 39075 of 84,940 total

ID Distance (ft) Battery V Battery A Int Temp (°F) Int Humid (%) Ext Temp (°F) Solar V RSSI SNR Time Stamp
45902 15.7 3.97 0 99 43 92 5.20 -71 7 07/10/2025 01:15 PM
45901 15.7 3.97 6 98 43 92 5.10 -71 8 07/10/2025 01:00 PM
45900 15.7 3.98 6 96 43 94 5.10 -72 8 07/10/2025 12:45 PM
45899 15.7 3.97 0 94 43 91 5.20 -71 7 07/10/2025 12:15 PM
45898 15.8 4.11 0 93 43 92 5.10 -71 7 07/10/2025 12:00 PM
45897 15.7 3.96 0 92 43 93 5.10 -71 7 07/10/2025 11:45 AM
45896 15.8 3.96 0 90 43 93 5.10 -74 7 07/10/2025 11:30 AM
45895 15.7 3.97 7 89 43 92 5.10 -73 8 07/10/2025 11:15 AM
45894 15.8 4.12 7 88 43 89 5.10 -73 8 07/10/2025 11:00 AM
45893 15.8 3.96 0 87 43 91 5.10 -72 7 07/10/2025 10:45 AM
45892 15.8 3.97 7 85 42 86 5.10 -72 7 07/10/2025 10:30 AM
45891 15.8 4.01 7 84 43 87 5.10 -71 7 07/10/2025 10:15 AM
45890 15.8 4.13 7 82 43 88 5.10 -71 8 07/10/2025 10:00 AM
45889 15.7 3.96 7 81 43 86 5.10 -72 7 07/10/2025 09:45 AM
45888 15.8 3.96 7 79 43 85 5.10 -72 7 07/10/2025 09:30 AM
45887 15.7 4.12 7 78 43 83 5.10 -71 8 07/10/2025 09:15 AM
45886 15.8 3.96 0 76 43 83 5.10 -71 7 07/10/2025 09:00 AM
45885 15.8 3.96 7 75 43 80 5.10 -71 8 07/10/2025 08:45 AM
45884 15.7 3.96 7 73 43 81 5.10 -72 8 07/10/2025 08:30 AM
45883 15.8 3.96 0 71 42 77 5.10 -71 7 07/10/2025 08:15 AM
45882 15.7 4.09 72 70 42 79 4.50 -71 8 07/10/2025 08:00 AM
45881 15.7 4.03 59 67 41 77 4.50 -71 8 07/10/2025 07:45 AM
45880 15.7 3.97 23 64 42 69 4.50 -71 7 07/10/2025 07:30 AM
45879 15.6 3.93 -10 62 42 66 4.60 -71 7 07/10/2025 07:15 AM
45878 15.6 3.96 7 60 42 64 4.50 -71 7 07/10/2025 07:00 AM